owner,sensor,date,latitude,longitude,air_pressure(mBar),qcFlag 
WAVCIS,ioos:station:WAVCIS:CSI06:1,2012-12-01T00:00:00Z,28.8667,-90.4833,1022.17,11111222 
WAVCIS,ioos:station:WAVCIS:CSI06:1,2012-12-01T01:00:00Z,28.8667,-90.4833,1022.78,11111222 
WAVCIS,ioos:station:WAVCIS:CSI06:1,2012-12-01T02:00:00Z,28.8667,-90.4833,1023.09,11111222 
WAVCIS,ioos:station:WAVCIS:CSI06:1,2012-12-01T03:00:00Z,28.8667,-90.4833,1023.06,11111222 
WAVCIS,ioos:station:WAVCIS:CSI06:1,2012-12-01T04:00:00Z,28.8667,-90.4833,1022.93,11111222 
WAVCIS,ioos:station:WAVCIS:CSI06:1,2012-12-01T05:00:00Z,28.8667,-90.4833,1022.88,11111222 
WAVCIS,ioos:station:WAVCIS:CSI06:1,2012-12-01T06:00:00Z,28.8667,-90.4833,1022.34,11111222 
WAVCIS,ioos:station:WAVCIS:CSI06:1,2012-12-01T07:00:00Z,28.8667,-90.4833,1022.26,11111222 
WAVCIS,ioos:station:WAVCIS:CSI06:1,2012-12-01T08:00:00Z,28.8667,-90.4833,1022.06,11111222 
WAVCIS,ioos:station:WAVCIS:CSI06:1,2012-12-01T09:00:00Z,28.8667,-90.4833,1021.93,11111222 
WAVCIS,ioos:station:WAVCIS:CSI06:1,2012-12-01T10:00:00Z,28.8667,-90.4833,1021.81,11111222 
WAVCIS,ioos:station:WAVCIS:CSI06:1,2012-12-01T11:00:00Z,28.8667,-90.4833,1022.01,11111222 
WAVCIS,ioos:station:WAVCIS:CSI06:1,2012-12-01T12:00:00Z,28.8667,-90.4833,1022.47,11111222 
WAVCIS,ioos:station:WAVCIS:CSI06:1,2012-12-01T13:00:00Z,28.8667,-90.4833,1022.94,11111222 
WAVCIS,ioos:station:WAVCIS:CSI06:1,2012-12-01T14:00:00Z,28.8667,-90.4833,1023.22,11111222 
WAVCIS,ioos:station:WAVCIS:CSI06:1,2012-12-01T15:00:00Z,28.8667,-90.4833,1023.84,11111222 
WAVCIS,ioos:station:WAVCIS:CSI06:1,2012-12-01T16:00:00Z,28.8667,-90.4833,1024.17,11111222 
WAVCIS,ioos:station:WAVCIS:CSI06:1,2012-12-01T17:00:00Z,28.8667,-90.4833,1023.89,11111222 
WAVCIS,ioos:station:WAVCIS:CSI06:1,2012-12-01T18:00:00Z,28.8667,-90.4833,1023.24,11111222 
WAVCIS,ioos:station:WAVCIS:CSI06:1,2012-12-01T19:00:00Z,28.8667,-90.4833,1022.53,11111222 
WAVCIS,ioos:station:WAVCIS:CSI06:1,2012-12-01T20:00:00Z,28.8667,-90.4833,1022.14,11111222 
WAVCIS,ioos:station:WAVCIS:CSI06:1,2012-12-01T21:00:00Z,28.8667,-90.4833,1022.1,11111222 
WAVCIS,ioos:station:WAVCIS:CSI06:1,2012-12-01T22:00:00Z,28.8667,-90.4833,1022.08,11111222 
WAVCIS,ioos:station:WAVCIS:CSI06:1,2012-12-01T23:00:00Z,28.8667,-90.4833,1022.56,11111222 
WAVCIS,ioos:station:WAVCIS:CSI06:1,2012-12-02T00:00:00Z,28.8667,-90.4833,1022.73,11111222 
WAVCIS,ioos:station:WAVCIS:CSI06:1,2012-12-02T01:00:00Z,28.8667,-90.4833,1022.92,11111222 
WAVCIS,ioos:station:WAVCIS:CSI06:1,2012-12-02T02:00:00Z,28.8667,-90.4833,1022.87,11111222 
WAVCIS,ioos:station:WAVCIS:CSI06:1,2012-12-02T03:00:00Z,28.8667,-90.4833,1022.77,11111222 
WAVCIS,ioos:station:WAVCIS:CSI06:1,2012-12-02T04:00:00Z,28.8667,-90.4833,1022.91,11111222 
WAVCIS,ioos:station:WAVCIS:CSI06:1,2012-12-02T05:00:00Z,28.8667,-90.4833,1022.94,11111222 
WAVCIS,ioos:station:WAVCIS:CSI06:1,2012-12-02T06:00:00Z,28.8667,-90.4833,1022.59,11111222 
WAVCIS,ioos:station:WAVCIS:CSI06:1,2012-12-02T07:00:00Z,28.8667,-90.4833,1022.35,11111222 
WAVCIS,ioos:station:WAVCIS:CSI06:1,2012-12-02T08:00:00Z,28.8667,-90.4833,1022.3,11111222 
WAVCIS,ioos:station:WAVCIS:CSI06:1,2012-12-02T09:00:00Z,28.8667,-90.4833,1022.29,11111222 
WAVCIS,ioos:station:WAVCIS:CSI06:1,2012-12-02T10:00:00Z,28.8667,-90.4833,1022.64,11111222 
WAVCIS,ioos:station:WAVCIS:CSI06:1,2012-12-02T11:00:00Z,28.8667,-90.4833,1023.09,11111222 
WAVCIS,ioos:station:WAVCIS:CSI06:1,2012-12-02T12:00:00Z,28.8667,-90.4833,1023.49,11111222 
WAVCIS,ioos:station:WAVCIS:CSI06:1,2012-12-02T13:00:00Z,28.8667,-90.4833,1023.84,11111222 
WAVCIS,ioos:station:WAVCIS:CSI06:1,2012-12-02T14:00:00Z,28.8667,-90.4833,1024.33,11111222 
WAVCIS,ioos:station:WAVCIS:CSI06:1,2012-12-02T15:00:00Z,28.8667,-90.4833,1024.86,11111222 
WAVCIS,ioos:station:WAVCIS:CSI06:1,2012-12-02T16:00:00Z,28.8667,-90.4833,1025.03,11111222 
WAVCIS,ioos:station:WAVCIS:CSI06:1,2012-12-02T17:00:00Z,28.8667,-90.4833,1024.61,11111222 
WAVCIS,ioos:station:WAVCIS:CSI06:1,2012-12-02T18:00:00Z,28.8667,-90.4833,1023.86,11111222 
WAVCIS,ioos:station:WAVCIS:CSI06:1,2012-12-02T19:00:00Z,28.8667,-90.4833,1022.95,11111222 
WAVCIS,ioos:station:WAVCIS:CSI06:1,2012-12-02T20:00:00Z,28.8667,-90.4833,1022.44,11111222 
WAVCIS,ioos:station:WAVCIS:CSI06:1,2012-12-02T21:00:00Z,28.8667,-90.4833,1022.28,11111222 
WAVCIS,ioos:station:WAVCIS:CSI06:1,2012-12-02T22:00:00Z,28.8667,-90.4833,1022.41,11111222 
WAVCIS,ioos:station:WAVCIS:CSI06:1,2012-12-02T23:00:00Z,28.8667,-90.4833,1022.6,11111222 
WAVCIS,ioos:station:WAVCIS:CSI06:1,2012-12-03T00:00:00Z,28.8667,-90.4833,1022.73,11111222 
WAVCIS,ioos:station:WAVCIS:CSI06:1,2012-12-03T01:00:00Z,28.8667,-90.4833,1022.97,11111222 
WAVCIS,ioos:station:WAVCIS:CSI06:1,2012-12-03T02:00:00Z,28.8667,-90.4833,1022.92,11111222 
WAVCIS,ioos:station:WAVCIS:CSI06:1,2012-12-03T03:00:00Z,28.8667,-90.4833,1023.11,11111222 
WAVCIS,ioos:station:WAVCIS:CSI06:1,2012-12-03T04:00:00Z,28.8667,-90.4833,1022.86,11111222 
WAVCIS,ioos:station:WAVCIS:CSI06:1,2012-12-03T05:00:00Z,28.8667,-90.4833,1022.53,11111222 
WAVCIS,ioos:station:WAVCIS:CSI06:1,2012-12-03T06:00:00Z,28.8667,-90.4833,1022.24,11111222 
WAVCIS,ioos:station:WAVCIS:CSI06:1,2012-12-03T07:00:00Z,28.8667,-90.4833,1021.74,11111222 
WAVCIS,ioos:station:WAVCIS:CSI06:1,2012-12-03T08:00:00Z,28.8667,-90.4833,1021.56,11111222 
WAVCIS,ioos:station:WAVCIS:CSI06:1,2012-12-03T09:00:00Z,28.8667,-90.4833,1021.27,11111222 
WAVCIS,ioos:station:WAVCIS:CSI06:1,2012-12-03T10:00:00Z,28.8667,-90.4833,1021.36,11111222 
WAVCIS,ioos:station:WAVCIS:CSI06:1,2012-12-03T11:00:00Z,28.8667,-90.4833,1021.4,11111222 
WAVCIS,ioos:station:WAVCIS:CSI06:1,2012-12-03T12:00:00Z,28.8667,-90.4833,1021.94,11111222 
WAVCIS,ioos:station:WAVCIS:CSI06:1,2012-12-03T13:00:00Z,28.8667,-90.4833,1022.63,11111222 
WAVCIS,ioos:station:WAVCIS:CSI06:1,2012-12-03T14:00:00Z,28.8667,-90.4833,1023.05,11111222 
WAVCIS,ioos:station:WAVCIS:CSI06:1,2012-12-03T15:00:00Z,28.8667,-90.4833,1023.23,11111222 
WAVCIS,ioos:station:WAVCIS:CSI06:1,2012-12-03T16:00:00Z,28.8667,-90.4833,1023.14,11111222 
WAVCIS,ioos:station:WAVCIS:CSI06:1,2012-12-03T17:00:00Z,28.8667,-90.4833,1022.96,11111222 
WAVCIS,ioos:station:WAVCIS:CSI06:1,2012-12-03T18:00:00Z,28.8667,-90.4833,1022.12,11111222 
WAVCIS,ioos:station:WAVCIS:CSI06:1,2012-12-03T19:00:00Z,28.8667,-90.4833,1021.19,11111222 
WAVCIS,ioos:station:WAVCIS:CSI06:1,2012-12-03T20:00:00Z,28.8667,-90.4833,1020.33,11111222 
WAVCIS,ioos:station:WAVCIS:CSI06:1,2012-12-03T21:00:00Z,28.8667,-90.4833,1020.5,11111222 
WAVCIS,ioos:station:WAVCIS:CSI06:1,2012-12-03T22:00:00Z,28.8667,-90.4833,1020.37,11111222 
WAVCIS,ioos:station:WAVCIS:CSI06:1,2012-12-03T23:00:00Z,28.8667,-90.4833,1020.85,11111222 
WAVCIS,ioos:station:WAVCIS:CSI06:1,2012-12-04T00:00:00Z,28.8667,-90.4833,1021.26,11111222 
WAVCIS,ioos:station:WAVCIS:CSI06:1,2012-12-04T01:00:00Z,28.8667,-90.4833,1021.28,11111222 
WAVCIS,ioos:station:WAVCIS:CSI06:1,2012-12-04T02:00:00Z,28.8667,-90.4833,1021.08,11111222 
WAVCIS,ioos:station:WAVCIS:CSI06:1,2012-12-04T03:00:00Z,28.8667,-90.4833,1021.45,11111222 
WAVCIS,ioos:station:WAVCIS:CSI06:1,2012-12-04T04:00:00Z,28.8667,-90.4833,1021.6,11111222 
WAVCIS,ioos:station:WAVCIS:CSI06:1,2012-12-04T05:00:00Z,28.8667,-90.4833,1021.45,11111222 
WAVCIS,ioos:station:WAVCIS:CSI06:1,2012-12-04T06:00:00Z,28.8667,-90.4833,1021.29,11111222 
WAVCIS,ioos:station:WAVCIS:CSI06:1,2012-12-04T07:00:00Z,28.8667,-90.4833,1021.01,11111222 
WAVCIS,ioos:station:WAVCIS:CSI06:1,2012-12-04T08:00:00Z,28.8667,-90.4833,1020.79,11111222 
WAVCIS,ioos:station:WAVCIS:CSI06:1,2012-12-04T09:00:00Z,28.8667,-90.4833,1020.75,11111222 
WAVCIS,ioos:station:WAVCIS:CSI06:1,2012-12-04T10:00:00Z,28.8667,-90.4833,1020.7,11111222 
WAVCIS,ioos:station:WAVCIS:CSI06:1,2012-12-04T11:00:00Z,28.8667,-90.4833,1020.69,11111222 
WAVCIS,ioos:station:WAVCIS:CSI06:1,2012-12-04T12:00:00Z,28.8667,-90.4833,1021.08,11111222 
WAVCIS,ioos:station:WAVCIS:CSI06:1,2012-12-04T13:00:00Z,28.8667,-90.4833,1021.72,11111222 
WAVCIS,ioos:station:WAVCIS:CSI06:1,2012-12-04T14:00:00Z,28.8667,-90.4833,1022.37,11111222 
WAVCIS,ioos:station:WAVCIS:CSI06:1,2012-12-04T15:00:00Z,28.8667,-90.4833,1022.85,11111222 
WAVCIS,ioos:station:WAVCIS:CSI06:1,2012-12-04T16:00:00Z,28.8667,-90.4833,1023.64,11111222 
WAVCIS,ioos:station:WAVCIS:CSI06:1,2012-12-04T17:00:00Z,28.8667,-90.4833,1023.33,11111222 
WAVCIS,ioos:station:WAVCIS:CSI06:1,2012-12-04T18:00:00Z,28.8667,-90.4833,1022.56,11111222 
WAVCIS,ioos:station:WAVCIS:CSI06:1,2012-12-04T19:00:00Z,28.8667,-90.4833,1021.5,11111222 
WAVCIS,ioos:station:WAVCIS:CSI06:1,2012-12-04T20:00:00Z,28.8667,-90.4833,1020.92,11111222 
WAVCIS,ioos:station:WAVCIS:CSI06:1,2012-12-04T21:00:00Z,28.8667,-90.4833,1020.31,11111222 
WAVCIS,ioos:station:WAVCIS:CSI06:1,2012-12-04T22:00:00Z,28.8667,-90.4833,1019.87,11111222 
WAVCIS,ioos:station:WAVCIS:CSI06:1,2012-12-04T23:00:00Z,28.8667,-90.4833,1020.13,11111222 
WAVCIS,ioos:station:WAVCIS:CSI06:1,2012-12-05T00:00:00Z,28.8667,-90.4833,1020.45,11111222 
WAVCIS,ioos:station:WAVCIS:CSI06:1,2012-12-05T01:00:00Z,28.8667,-90.4833,1020.89,11111222 
WAVCIS,ioos:station:WAVCIS:CSI06:1,2012-12-05T02:00:00Z,28.8667,-90.4833,1021.36,11111222 
WAVCIS,ioos:station:WAVCIS:CSI06:1,2012-12-05T03:00:00Z,28.8667,-90.4833,1020.83,11111222 
WAVCIS,ioos:station:WAVCIS:CSI06:1,2012-12-05T04:00:00Z,28.8667,-90.4833,1020.68,11111222 
WAVCIS,ioos:station:WAVCIS:CSI06:1,2012-12-05T05:00:00Z,28.8667,-90.4833,1020.94,11111222 
WAVCIS,ioos:station:WAVCIS:CSI06:1,2012-12-05T06:00:00Z,28.8667,-90.4833,1020.56,11111222 
WAVCIS,ioos:station:WAVCIS:CSI06:1,2012-12-05T07:00:00Z,28.8667,-90.4833,1019.66,11111222 
WAVCIS,ioos:station:WAVCIS:CSI06:1,2012-12-05T08:00:00Z,28.8667,-90.4833,1019.64,11111222 
WAVCIS,ioos:station:WAVCIS:CSI06:1,2012-12-05T09:00:00Z,28.8667,-90.4833,1018.72,11111222 
WAVCIS,ioos:station:WAVCIS:CSI06:1,2012-12-05T10:00:00Z,28.8667,-90.4833,1018.27,11111222 
WAVCIS,ioos:station:WAVCIS:CSI06:1,2012-12-05T11:00:00Z,28.8667,-90.4833,1018.76,11111222 
WAVCIS,ioos:station:WAVCIS:CSI06:1,2012-12-05T12:00:00Z,28.8667,-90.4833,1019.15,11111222 
WAVCIS,ioos:station:WAVCIS:CSI06:1,2012-12-05T13:00:00Z,28.8667,-90.4833,1019.25,11111222 
WAVCIS,ioos:station:WAVCIS:CSI06:1,2012-12-05T14:00:00Z,28.8667,-90.4833,1019.66,11111222 
WAVCIS,ioos:station:WAVCIS:CSI06:1,2012-12-05T15:00:00Z,28.8667,-90.4833,1020.1,11111222 
WAVCIS,ioos:station:WAVCIS:CSI06:1,2012-12-05T16:00:00Z,28.8667,-90.4833,1020.09,11111222 
WAVCIS,ioos:station:WAVCIS:CSI06:1,2012-12-05T17:00:00Z,28.8667,-90.4833,1019.44,11111222 
WAVCIS,ioos:station:WAVCIS:CSI06:1,2012-12-05T18:00:00Z,28.8667,-90.4833,1018.32,11111222 
WAVCIS,ioos:station:WAVCIS:CSI06:1,2012-12-05T19:00:00Z,28.8667,-90.4833,1017.81,11111222 
WAVCIS,ioos:station:WAVCIS:CSI06:1,2012-12-05T20:00:00Z,28.8667,-90.4833,1017.07,11111222 
WAVCIS,ioos:station:WAVCIS:CSI06:1,2012-12-05T21:00:00Z,28.8667,-90.4833,1016.7,11111222 
WAVCIS,ioos:station:WAVCIS:CSI06:1,2012-12-05T22:00:00Z,28.8667,-90.4833,1016.27,11111222 
WAVCIS,ioos:station:WAVCIS:CSI06:1,2012-12-05T23:00:00Z,28.8667,-90.4833,1016.84,11111222 
WAVCIS,ioos:station:WAVCIS:CSI06:1,2012-12-06T00:00:00Z,28.8667,-90.4833,1016.74,11111222 
WAVCIS,ioos:station:WAVCIS:CSI06:1,2012-12-06T01:00:00Z,28.8667,-90.4833,1017.08,11111222 
WAVCIS,ioos:station:WAVCIS:CSI06:1,2012-12-06T02:00:00Z,28.8667,-90.4833,1017.52,11111222 
WAVCIS,ioos:station:WAVCIS:CSI06:1,2012-12-06T03:00:00Z,28.8667,-90.4833,1017.53,11111222 
WAVCIS,ioos:station:WAVCIS:CSI06:1,2012-12-06T04:00:00Z,28.8667,-90.4833,1017.02,11111222 
WAVCIS,ioos:station:WAVCIS:CSI06:1,2012-12-06T05:00:00Z,28.8667,-90.4833,1016.59,11111222 
WAVCIS,ioos:station:WAVCIS:CSI06:1,2012-12-06T06:00:00Z,28.8667,-90.4833,1016.33,11111222 
WAVCIS,ioos:station:WAVCIS:CSI06:1,2012-12-06T07:00:00Z,28.8667,-90.4833,1016.16,11111222 
WAVCIS,ioos:station:WAVCIS:CSI06:1,2012-12-06T08:00:00Z,28.8667,-90.4833,1015.9,11111222 
WAVCIS,ioos:station:WAVCIS:CSI06:1,2012-12-06T09:00:00Z,28.8667,-90.4833,1015.33,11111222 
WAVCIS,ioos:station:WAVCIS:CSI06:1,2012-12-06T10:00:00Z,28.8667,-90.4833,1015.09,11111222 
WAVCIS,ioos:station:WAVCIS:CSI06:1,2012-12-06T11:00:00Z,28.8667,-90.4833,1015.03,11111222 
WAVCIS,ioos:station:WAVCIS:CSI06:1,2012-12-06T12:00:00Z,28.8667,-90.4833,1015.06,11111222 
WAVCIS,ioos:station:WAVCIS:CSI06:1,2012-12-06T13:00:00Z,28.8667,-90.4833,1015.56,11111222 
WAVCIS,ioos:station:WAVCIS:CSI06:1,2012-12-06T14:00:00Z,28.8667,-90.4833,1015.98,11111222 
WAVCIS,ioos:station:WAVCIS:CSI06:1,2012-12-06T15:00:00Z,28.8667,-90.4833,1016.19,11111222 
WAVCIS,ioos:station:WAVCIS:CSI06:1,2012-12-06T16:00:00Z,28.8667,-90.4833,1016.4,11111222 
WAVCIS,ioos:station:WAVCIS:CSI06:1,2012-12-06T17:00:00Z,28.8667,-90.4833,1015.98,11111222 
WAVCIS,ioos:station:WAVCIS:CSI06:1,2012-12-06T18:00:00Z,28.8667,-90.4833,1014.66,11111222 
WAVCIS,ioos:station:WAVCIS:CSI06:1,2012-12-06T19:00:00Z,28.8667,-90.4833,1014.24,11111222 
WAVCIS,ioos:station:WAVCIS:CSI06:1,2012-12-06T20:00:00Z,28.8667,-90.4833,1013.71,11111222 
WAVCIS,ioos:station:WAVCIS:CSI06:1,2012-12-06T21:00:00Z,28.8667,-90.4833,1013.72,11111222 
WAVCIS,ioos:station:WAVCIS:CSI06:1,2012-12-06T22:00:00Z,28.8667,-90.4833,1013.58,11111222 
WAVCIS,ioos:station:WAVCIS:CSI06:1,2012-12-06T23:00:00Z,28.8667,-90.4833,1013.78,11111222 
WAVCIS,ioos:station:WAVCIS:CSI06:1,2012-12-07T00:00:00Z,28.8667,-90.4833,1013.88,11111222 
WAVCIS,ioos:station:WAVCIS:CSI06:1,2012-12-07T01:00:00Z,28.8667,-90.4833,1014.28,11111222 
WAVCIS,ioos:station:WAVCIS:CSI06:1,2012-12-07T02:00:00Z,28.8667,-90.4833,1014.55,11111222 
WAVCIS,ioos:station:WAVCIS:CSI06:1,2012-12-07T03:00:00Z,28.8667,-90.4833,1014.64,11111222 
WAVCIS,ioos:station:WAVCIS:CSI06:1,2012-12-07T04:00:00Z,28.8667,-90.4833,1014.44,11111222 
WAVCIS,ioos:station:WAVCIS:CSI06:1,2012-12-07T05:00:00Z,28.8667,-90.4833,1014.41,11111222 
WAVCIS,ioos:station:WAVCIS:CSI06:1,2012-12-07T06:00:00Z,28.8667,-90.4833,1013.83,11111222 
WAVCIS,ioos:station:WAVCIS:CSI06:1,2012-12-07T07:00:00Z,28.8667,-90.4833,1014.14,11111222 
WAVCIS,ioos:station:WAVCIS:CSI06:1,2012-12-07T08:00:00Z,28.8667,-90.4833,1013.61,11111222 
WAVCIS,ioos:station:WAVCIS:CSI06:1,2012-12-07T09:00:00Z,28.8667,-90.4833,1013.46,11111222 
WAVCIS,ioos:station:WAVCIS:CSI06:1,2012-12-07T10:00:00Z,28.8667,-90.4833,1013.37,11111222 
WAVCIS,ioos:station:WAVCIS:CSI06:1,2012-12-07T11:00:00Z,28.8667,-90.4833,1013.61,11111222 
WAVCIS,ioos:station:WAVCIS:CSI06:1,2012-12-07T12:00:00Z,28.8667,-90.4833,1014.15,11111222 
WAVCIS,ioos:station:WAVCIS:CSI06:1,2012-12-07T13:00:00Z,28.8667,-90.4833,1014.49,11111222 
WAVCIS,ioos:station:WAVCIS:CSI06:1,2012-12-07T14:00:00Z,28.8667,-90.4833,1015.13,11111222 
WAVCIS,ioos:station:WAVCIS:CSI06:1,2012-12-07T15:00:00Z,28.8667,-90.4833,1015.51,11111222 
WAVCIS,ioos:station:WAVCIS:CSI06:1,2012-12-07T16:00:00Z,28.8667,-90.4833,1015.44,11111222 
WAVCIS,ioos:station:WAVCIS:CSI06:1,2012-12-07T17:00:00Z,28.8667,-90.4833,1015.08,11111222 
WAVCIS,ioos:station:WAVCIS:CSI06:1,2012-12-07T18:00:00Z,28.8667,-90.4833,1014.43,11111222 
WAVCIS,ioos:station:WAVCIS:CSI06:1,2012-12-07T19:00:00Z,28.8667,-90.4833,1013.62,11111222 
WAVCIS,ioos:station:WAVCIS:CSI06:1,2012-12-07T20:00:00Z,28.8667,-90.4833,1012.68,11111222 
WAVCIS,ioos:station:WAVCIS:CSI06:1,2012-12-07T21:00:00Z,28.8667,-90.4833,1012.52,11111222 
WAVCIS,ioos:station:WAVCIS:CSI06:1,2012-12-07T22:00:00Z,28.8667,-90.4833,1012.47,11111222 
WAVCIS,ioos:station:WAVCIS:CSI06:1,2012-12-07T23:00:00Z,28.8667,-90.4833,1012.98,11111222 
WAVCIS,ioos:station:WAVCIS:CSI06:1,2012-12-08T00:00:00Z,28.8667,-90.4833,1013.16,11111222 
WAVCIS,ioos:station:WAVCIS:CSI06:1,2012-12-08T01:00:00Z,28.8667,-90.4833,1013.67,11111222 
WAVCIS,ioos:station:WAVCIS:CSI06:1,2012-12-08T02:00:00Z,28.8667,-90.4833,1013.98,11111222 
WAVCIS,ioos:station:WAVCIS:CSI06:1,2012-12-08T03:00:00Z,28.8667,-90.4833,1014.14,11111222 
WAVCIS,ioos:station:WAVCIS:CSI06:1,2012-12-08T04:00:00Z,28.8667,-90.4833,1014.5,11111222 
WAVCIS,ioos:station:WAVCIS:CSI06:1,2012-12-08T05:00:00Z,28.8667,-90.4833,1014.49,11111222 
WAVCIS,ioos:station:WAVCIS:CSI06:1,2012-12-08T06:00:00Z,28.8667,-90.4833,1013.97,11111222 
WAVCIS,ioos:station:WAVCIS:CSI06:1,2012-12-08T07:00:00Z,28.8667,-90.4833,1013.62,11111222 
WAVCIS,ioos:station:WAVCIS:CSI06:1,2012-12-08T08:00:00Z,28.8667,-90.4833,1013.6,11111222 
WAVCIS,ioos:station:WAVCIS:CSI06:1,2012-12-08T09:00:00Z,28.8667,-90.4833,1013.41,11111222 
WAVCIS,ioos:station:WAVCIS:CSI06:1,2012-12-08T10:00:00Z,28.8667,-90.4833,1013.52,11111222 
WAVCIS,ioos:station:WAVCIS:CSI06:1,2012-12-08T11:00:00Z,28.8667,-90.4833,1013.81,11111222 
WAVCIS,ioos:station:WAVCIS:CSI06:1,2012-12-08T12:00:00Z,28.8667,-90.4833,1014.69,11111222 
WAVCIS,ioos:station:WAVCIS:CSI06:1,2012-12-08T13:00:00Z,28.8667,-90.4833,1015.55,11111222 
WAVCIS,ioos:station:WAVCIS:CSI06:1,2012-12-08T14:00:00Z,28.8667,-90.4833,1015.75,11111222 
WAVCIS,ioos:station:WAVCIS:CSI06:1,2012-12-08T15:00:00Z,28.8667,-90.4833,1015.96,11111222 
WAVCIS,ioos:station:WAVCIS:CSI06:1,2012-12-08T16:00:00Z,28.8667,-90.4833,1016.34,11111222 
WAVCIS,ioos:station:WAVCIS:CSI06:1,2012-12-08T17:00:00Z,28.8667,-90.4833,1015.85,11111222 
WAVCIS,ioos:station:WAVCIS:CSI06:1,2012-12-08T18:00:00Z,28.8667,-90.4833,1015.09,11111222 
WAVCIS,ioos:station:WAVCIS:CSI06:1,2012-12-08T19:00:00Z,28.8667,-90.4833,1014.44,11111222 
WAVCIS,ioos:station:WAVCIS:CSI06:1,2012-12-08T20:00:00Z,28.8667,-90.4833,1013.89,11111222 
WAVCIS,ioos:station:WAVCIS:CSI06:1,2012-12-08T21:00:00Z,28.8667,-90.4833,1013.89,11111222 
WAVCIS,ioos:station:WAVCIS:CSI06:1,2012-12-08T22:00:00Z,28.8667,-90.4833,1014.15,11111222 
WAVCIS,ioos:station:WAVCIS:CSI06:1,2012-12-08T23:00:00Z,28.8667,-90.4833,1014.32,11111222 
WAVCIS,ioos:station:WAVCIS:CSI06:1,2012-12-09T00:00:00Z,28.8667,-90.4833,1014.71,11111222 
WAVCIS,ioos:station:WAVCIS:CSI06:1,2012-12-09T01:00:00Z,28.8667,-90.4833,1015.38,11111222 
WAVCIS,ioos:station:WAVCIS:CSI06:1,2012-12-09T02:00:00Z,28.8667,-90.4833,1015.6,11111222 
WAVCIS,ioos:station:WAVCIS:CSI06:1,2012-12-09T03:00:00Z,28.8667,-90.4833,1015.73,11111222 
WAVCIS,ioos:station:WAVCIS:CSI06:1,2012-12-09T04:00:00Z,28.8667,-90.4833,1015.75,11111222 
WAVCIS,ioos:station:WAVCIS:CSI06:1,2012-12-09T05:00:00Z,28.8667,-90.4833,1015.57,11111222 
WAVCIS,ioos:station:WAVCIS:CSI06:1,2012-12-09T06:00:00Z,28.8667,-90.4833,1015.09,11111222 
WAVCIS,ioos:station:WAVCIS:CSI06:1,2012-12-09T07:00:00Z,28.8667,-90.4833,1014.72,11111222 
WAVCIS,ioos:station:WAVCIS:CSI06:1,2012-12-09T08:00:00Z,28.8667,-90.4833,1014.39,11111222 
WAVCIS,ioos:station:WAVCIS:CSI06:1,2012-12-09T09:00:00Z,28.8667,-90.4833,1014.18,11111222 
WAVCIS,ioos:station:WAVCIS:CSI06:1,2012-12-09T10:00:00Z,28.8667,-90.4833,1014.34,11111222 
WAVCIS,ioos:station:WAVCIS:CSI06:1,2012-12-09T11:00:00Z,28.8667,-90.4833,1014.44,11111222 
WAVCIS,ioos:station:WAVCIS:CSI06:1,2012-12-09T12:00:00Z,28.8667,-90.4833,1014.96,11111222 
WAVCIS,ioos:station:WAVCIS:CSI06:1,2012-12-09T13:00:00Z,28.8667,-90.4833,1015.58,11111222 
WAVCIS,ioos:station:WAVCIS:CSI06:1,2012-12-09T14:00:00Z,28.8667,-90.4833,1016.0,11111222 
WAVCIS,ioos:station:WAVCIS:CSI06:1,2012-12-09T15:00:00Z,28.8667,-90.4833,1016.44,11111222 
WAVCIS,ioos:station:WAVCIS:CSI06:1,2012-12-09T16:00:00Z,28.8667,-90.4833,1016.64,11111222 
WAVCIS,ioos:station:WAVCIS:CSI06:1,2012-12-09T17:00:00Z,28.8667,-90.4833,1016.2,11111222 
WAVCIS,ioos:station:WAVCIS:CSI06:1,2012-12-09T18:00:00Z,28.8667,-90.4833,1015.56,11111222 
WAVCIS,ioos:station:WAVCIS:CSI06:1,2012-12-09T19:00:00Z,28.8667,-90.4833,1014.94,11111222 
WAVCIS,ioos:station:WAVCIS:CSI06:1,2012-12-09T20:00:00Z,28.8667,-90.4833,1014.43,11111222 
WAVCIS,ioos:station:WAVCIS:CSI06:1,2012-12-09T21:00:00Z,28.8667,-90.4833,1014.2,11111222 
WAVCIS,ioos:station:WAVCIS:CSI06:1,2012-12-09T22:00:00Z,28.8667,-90.4833,1013.84,11111222 
WAVCIS,ioos:station:WAVCIS:CSI06:1,2012-12-09T23:00:00Z,28.8667,-90.4833,1013.8,11111222 
WAVCIS,ioos:station:WAVCIS:CSI06:1,2012-12-10T00:00:00Z,28.8667,-90.4833,1014.11,11111222 
WAVCIS,ioos:station:WAVCIS:CSI06:1,2012-12-10T01:00:00Z,28.8667,-90.4833,1014.17,11111222 
WAVCIS,ioos:station:WAVCIS:CSI06:1,2012-12-10T02:00:00Z,28.8667,-90.4833,1013.87,11111222 
WAVCIS,ioos:station:WAVCIS:CSI06:1,2012-12-10T03:00:00Z,28.8667,-90.4833,1013.7,11111222 
WAVCIS,ioos:station:WAVCIS:CSI06:1,2012-12-10T04:00:00Z,28.8667,-90.4833,1013.9,11111222 
WAVCIS,ioos:station:WAVCIS:CSI06:1,2012-12-10T05:00:00Z,28.8667,-90.4833,1013.71,11111222 
WAVCIS,ioos:station:WAVCIS:CSI06:1,2012-12-10T06:00:00Z,28.8667,-90.4833,1013.44,11111222 
WAVCIS,ioos:station:WAVCIS:CSI06:1,2012-12-10T07:00:00Z,28.8667,-90.4833,1013.16,11111222 
WAVCIS,ioos:station:WAVCIS:CSI06:1,2012-12-10T08:00:00Z,28.8667,-90.4833,1012.6,11111222 
WAVCIS,ioos:station:WAVCIS:CSI06:1,2012-12-10T09:00:00Z,28.8667,-90.4833,1011.73,11111222 
WAVCIS,ioos:station:WAVCIS:CSI06:1,2012-12-10T10:00:00Z,28.8667,-90.4833,1010.8,11111222 
WAVCIS,ioos:station:WAVCIS:CSI06:1,2012-12-10T11:00:00Z,28.8667,-90.4833,1010.66,11111222 
WAVCIS,ioos:station:WAVCIS:CSI06:1,2012-12-10T12:00:00Z,28.8667,-90.4833,1009.83,11111222 
WAVCIS,ioos:station:WAVCIS:CSI06:1,2012-12-10T13:00:00Z,28.8667,-90.4833,1010.79,11111222 
WAVCIS,ioos:station:WAVCIS:CSI06:1,2012-12-10T14:00:00Z,28.8667,-90.4833,1011.27,11111222 
WAVCIS,ioos:station:WAVCIS:CSI06:1,2012-12-10T15:00:00Z,28.8667,-90.4833,1011.72,11111222 
WAVCIS,ioos:station:WAVCIS:CSI06:1,2012-12-10T16:00:00Z,28.8667,-90.4833,1011.88,11111222 
WAVCIS,ioos:station:WAVCIS:CSI06:1,2012-12-10T17:00:00Z,28.8667,-90.4833,1011.33,11111222 
WAVCIS,ioos:station:WAVCIS:CSI06:1,2012-12-10T18:00:00Z,28.8667,-90.4833,1010.73,11111222 
WAVCIS,ioos:station:WAVCIS:CSI06:1,2012-12-10T19:00:00Z,28.8667,-90.4833,1010.17,11111222 
WAVCIS,ioos:station:WAVCIS:CSI06:1,2012-12-10T20:00:00Z,28.8667,-90.4833,1009.8,11111222 
WAVCIS,ioos:station:WAVCIS:CSI06:1,2012-12-10T21:00:00Z,28.8667,-90.4833,1010.48,11111222 
WAVCIS,ioos:station:WAVCIS:CSI06:1,2012-12-10T22:00:00Z,28.8667,-90.4833,1010.78,11111222 
WAVCIS,ioos:station:WAVCIS:CSI06:1,2012-12-10T23:00:00Z,28.8667,-90.4833,1011.72,11111222 
WAVCIS,ioos:station:WAVCIS:CSI06:1,2012-12-11T00:00:00Z,28.8667,-90.4833,1012.3,11111222 
WAVCIS,ioos:station:WAVCIS:CSI06:1,2012-12-11T01:00:00Z,28.8667,-90.4833,1013.48,11111222 
WAVCIS,ioos:station:WAVCIS:CSI06:1,2012-12-11T02:00:00Z,28.8667,-90.4833,1013.74,11111222 
WAVCIS,ioos:station:WAVCIS:CSI06:1,2012-12-11T03:00:00Z,28.8667,-90.4833,1014.38,11111222 
WAVCIS,ioos:station:WAVCIS:CSI06:1,2012-12-11T04:00:00Z,28.8667,-90.4833,1015.12,11111222 
WAVCIS,ioos:station:WAVCIS:CSI06:1,2012-12-11T05:00:00Z,28.8667,-90.4833,1015.34,11111222 
WAVCIS,ioos:station:WAVCIS:CSI06:1,2012-12-11T06:00:00Z,28.8667,-90.4833,1015.42,11111222 
WAVCIS,ioos:station:WAVCIS:CSI06:1,2012-12-11T07:00:00Z,28.8667,-90.4833,1015.05,11111222 
WAVCIS,ioos:station:WAVCIS:CSI06:1,2012-12-11T08:00:00Z,28.8667,-90.4833,1015.24,11111222 
WAVCIS,ioos:station:WAVCIS:CSI06:1,2012-12-11T09:00:00Z,28.8667,-90.4833,1016.05,11111222 
WAVCIS,ioos:station:WAVCIS:CSI06:1,2012-12-11T10:00:00Z,28.8667,-90.4833,1016.31,11111222 
WAVCIS,ioos:station:WAVCIS:CSI06:1,2012-12-11T11:00:00Z,28.8667,-90.4833,1016.16,11111222 
WAVCIS,ioos:station:WAVCIS:CSI06:1,2012-12-11T12:00:00Z,28.8667,-90.4833,1016.82,11111222 
WAVCIS,ioos:station:WAVCIS:CSI06:1,2012-12-11T13:00:00Z,28.8667,-90.4833,1017.52,11111222 
WAVCIS,ioos:station:WAVCIS:CSI06:1,2012-12-11T14:00:00Z,28.8667,-90.4833,1018.7,11111222 
WAVCIS,ioos:station:WAVCIS:CSI06:1,2012-12-11T15:00:00Z,28.8667,-90.4833,1019.3,11111222 
WAVCIS,ioos:station:WAVCIS:CSI06:1,2012-12-11T16:00:00Z,28.8667,-90.4833,1019.59,11111222 
WAVCIS,ioos:station:WAVCIS:CSI06:1,2012-12-11T17:00:00Z,28.8667,-90.4833,1019.42,11111222 
WAVCIS,ioos:station:WAVCIS:CSI06:1,2012-12-11T18:00:00Z,28.8667,-90.4833,1018.15,11111222 
WAVCIS,ioos:station:WAVCIS:CSI06:1,2012-12-11T19:00:00Z,28.8667,-90.4833,1017.41,11111222 
WAVCIS,ioos:station:WAVCIS:CSI06:1,2012-12-11T20:00:00Z,28.8667,-90.4833,1018.36,11111222 
WAVCIS,ioos:station:WAVCIS:CSI06:1,2012-12-11T21:00:00Z,28.8667,-90.4833,1018.28,11111222 
WAVCIS,ioos:station:WAVCIS:CSI06:1,2012-12-11T22:00:00Z,28.8667,-90.4833,1017.69,11111222 